Terminal Aerodrome Forecast
Issued by NWS

Home | Current Version | Previous Version | Text Only | Print | Product List | Glossary On
Versions: 1 2 3 4 5 6 7 8 9 10 11 12 13 14 15 16 17 18 19
000
FTUS43 KLSX 271300 AAA
TAFCPS
TAF AMD
KCPS 271354Z 2714/2812 30014KT P6SM SCT015 SCT040
      TEMPO 2714/2716 BKN015
     FM271900 31016G24KT P6SM SCT040
     FM280200 31006KT P6SM SKC=

USA.gov is the U.S. government's official web portal to all federal, state and local government web resources and services.